World > North America > United States > Pennsylvania > Cherry Tree  

Cherry Tree, PA Hourly Weather Updates

Feedback E-mail the Weather

Quick Clicks

Cherry Tree, PA Weather Maps

°F °C°F °C
Cherry Tree Weather Map
UTC Time: 6/18/2024, 17:45
Your Time:

Cherry Tree, PA Regional Weather

Expires:202406181800;;243290
ASUS41 KCTP 181710
RWRCTP

REGIONAL WEATHER ROUNDUP
NATIONAL WEATHER SERVICE STATE COLLEGE PA
100 PM EDT TUE JUN 18 2024

Note: "fair" indicates few or no clouds below 12,000 feet with no 
significant weather and/or obstructions to visibility.

* = STATION THAT DOES NOT REPORT PRECIPITATION /E.G. RAIN...SNOW...ETC/
    THUNDER OR FOG.


PAZ004>006-010>012-017>019-024>028-033>037-041-042-045-046-049>053-181800-
CENTRAL PENNSYLVANIA
  
CITY           SKY/WX    TMP DP  RH WIND       PRES   REMARKS
BRADFORD       PTSUNNY   88  71  57 CALM      30.28S                  
ST MARYS       PTSUNNY   86  70  58 E6        30.31S                  
DUBOIS         MOSUNNY   90  71  53 NE6       30.26S HX  96           
CLEARFIELD     MOSUNNY   87  71  58 S5        30.26R                  
JOHNSTOWN      PTSUNNY   84  70  62 SE7       30.29R                  
SOMERSET       CLOUDY    77  64  65 NE10G20   30.31R                  
ALTOONA        MOSUNNY   90  69  50 VRB6      30.26F                  
STATE COLLEGE  SUNNY     88  70  55 CALM      30.25F                  
REEDSVILLE     MOSUNNY   90  72  55 VRB5      30.22F HX  96           
WELLSBORO      MOSUNNY   84  72  65 VRB5      30.28R                  
WILLIAMSPORT   MOSUNNY   89  74  60 SE3       30.20F HX  98           
SELINSGROVE    MOSUNNY   87  72  60 SE9       30.22F                  
FT INDIANTOWN  MOSUNNY   89  70  53 S5        30.22F                  
CAPITAL CITY   SUNNY     90  71  53 E10       30.22F HX  96           
HARRISBURG     MOSUNNY   89  71  55 SE8       30.22F HX  95           
YORK           MOSUNNY   89  72  56 SE6       30.24F HX  96           
$$


SKY/WX - Weather  TMP - Temperature  DP - Dew Point  RH - Humidity
WIND - Wind Direction/Speed PRES - Barometric Pressure VSB - Visibility
WCI - Wind Chill Index E13G22 Wind - East Wind 13 mph/Gusts of 22 mph

Trending Headlines

Trending Entertainment Headlines

Cherry Tree Radar Loop

Use the map search tool if you want to place a location marker on the radar map...

Cherry Tree Quick Facts

National Two Day Weather Forecast


E-mail the Cherry Tree Weather Forecast

Voice your opinion or tell us about page issues...